Simultaneous Nadir Overpasses (SNOs) Predictions

Prediction of SNOs between GOES-16 and METOP-B Satellite Orbit:

Table of predicted SNOs for the next 14.0 days since TLE Epoch: 7/6/2024
Index Date Time (GOES-16) GOES-16 Lat,Lon METOP-B Lat,Lon Distance(km) Time Diff (sec)
1 07/07/2024 02:16:07 -0.03, -75.20 0.35, -73.43 201.75 80
2 07/08/2024 14:32:23 0.02, -75.21 0.63, -78.03 320.38 80
3 07/09/2024 14:14:25 0.02, -75.22 -0.44, -73.04 247.76 80
4 07/11/2024 02:30:51 -0.01, -75.23 -0.54, -77.68 277.90 80
5 07/12/2024 02:12:53 -0.01, -75.25 0.54, -72.69 290.78 80
6 07/13/2024 14:29:09 0.01, -75.27 0.43, -77.29 229.77 80
7 07/14/2024 14:11:12 0.01, -75.29 -0.65, -72.31 339.26 80
8 07/16/2024 02:27:36 -0.01, -75.31 -0.36, -76.94 185.25 80
9 07/17/2024 02:09:39 -0.02, -75.32 0.72, -71.95 383.92 80
10 07/18/2024 14:28:34 0.02, -75.35 0.30, -76.54 136.09 80
11 07/19/2024 14:05:18 0.02, -75.37 -0.85, -71.57 432.98 80
